Showing default

SKYSAT C1, 41601

Orbit data source: Space-Track

SKYSAT C1, 41601 is a payload satellite owned by Terra Bella (US) in SSO that was launched on Wed, 22 Jun 2016 UTC via a PSLV-XL launch vehicle from the Sirharikota (SRI). Payload-class satellites include a variety of spacecraft equipped with specific instruments for various scientific and technological missions. These include communications satellites like Starlink; space stations such as the ISS; scientific satellites like the Hubble; Earth observation satellites from companies like Planet Labs, Umbra, and HawkEye 360; GPS; miniature CubeSats for education and research; and military/defense satellites.

Loading next visibility...
Identifier
41601, 2016-040C
Orbit
SSO
Country
Flag of USUS
Related business
Manufacturer
SS/Loral (MDA)
Mission
Operational Commercial Imaging
Bus & Motor
SKYSAT-GEN2, Unknown motor
Mass
110 kg wet, 110 kg dry
Launch date (UTC)
2016-06-22 (9 years ago)
Launch vehicle
PSLV-XL
Launch site
Sirharikota (SRI)
Object type
Payload
Rocket body
Debris
Shape & HBR
Box, 1.0 m
Radar Cross Section
0.888 m², Medium (>0.1 m² and < 1m²)

Expand to show TLE details & history
Last TLE update: 15 hours ago

TLE from 15 hours ago
0 SKYSAT C1
1 41601U 16040C   25341.82382112  .00014334  00000-0  45924-3 0  9997
2 41601  96.9826  19.1149 0002907  29.1433 330.9972 15.32459821528524
Epoch: 2025-12-07T19:46Z
TLE epoch observation values (Epoch: 2025-12-07T19:46:18.144Z)
Latitude
-0.00002°
Longitude
5.70763°
Altitude
469.854 km
Speed
7.632 km/s
True Right ascension
01h 16m 27s
True Declination
0° 00' 00"
Sunlit
Object was in full shadow at epoch
Visualization orbit readout
Latitude
Unknown
Longitude
Unknown
Altitude
Unknown
Speed
Unknown
Apparent Right ascension
Unknown
Apparent Declination
Unknown
Sunlit
N/A
Visualization observer readout
Local Sidereal Time
08:58:33
Azimuth
Unknown
Elevation
Unknown
Doppler factor
Unknown
Orbital elements
Apogee altitude
467.397 km
Perigee altitude
463.418 km
Semi-major axis
6,843.544 km
Eccentricity
0.00029
Inclination
96.9826°
RAAN
19.1149°
Arg. of periapsis
29.1433°
True anomaly
330.98104°
Mean anomaly
330.9972°
Eccentric anomaly
330.98912°
Mean motion
3.83373 °/min
Orbital period
93.9 mins
BSTAR
0.00045924
Loading maneuver chart data...
Computing Atmospheric mass density...

Documentation

Showing up to 5 results
|